EZS5846 EDDH-LFSB

Flight info

Callsign EZS5846
Flight time 1h 9m
Altitude 35000
Route IDEKO7G IDEKO N850 NIE DCT OTMON/N0450F340 DCT SWALM DCT OMOGI/N0454F350 T721 SUNEG T715 RIGVI
Aircraft A320/M-SDE3FGHIRWY/LB1

Departure

Time 2026-05-05 17:29
Airport Hamburg Helmut Schmidt Airport (EDDH)

Arrival

Time 2026-05-05 18:39
Airport EuroAirport Basel–Mulhouse–Freiburg (LFSB)
Time Latitude Longitude Altitude Speed Heading
2026-05-05 17:00 53.63245 10.00357 48 ft 0 kts 86°
2026-05-05 17:18 53.63245 10.00350 48 ft 3 kts 86°
2026-05-05 17:19 53.63243 10.00310 48 ft 2 kts 86°
2026-05-05 17:19 53.63244 10.00270 48 ft 4 kts 113°
2026-05-05 17:19 53.63259 10.00242 46 ft 3 kts 172°
2026-05-05 17:19 53.63263 10.00241 47 ft 0 kts 176°
2026-05-05 17:22 53.63147 10.00252 46 ft 16 kts 176°
2026-05-05 17:22 53.63049 10.00242 48 ft 13 kts 213°
2026-05-05 17:22 53.62982 10.00170 48 ft 11 kts 212°
2026-05-05 17:22 53.62939 10.00124 48 ft 1 kts 212°
2026-05-05 17:23 53.62937 10.00121 48 ft 0 kts 212°
2026-05-05 17:23 53.62929 10.00113 48 ft 0 kts 212°
2026-05-05 17:23 53.62928 10.00112 48 ft 0 kts 212°
2026-05-05 17:24 53.62927 10.00111 48 ft 1 kts 212°
2026-05-05 17:24 53.62897 10.00078 48 ft 4 kts 213°
2026-05-05 17:24 53.62880 10.00059 46 ft 2 kts 216°
2026-05-05 17:24 53.62872 10.00043 47 ft 1 kts 232°
2026-05-05 17:25 53.62869 10.00037 48 ft 0 kts 234°
2026-05-05 17:25 53.62863 10.00019 48 ft 8 kts 240°
2026-05-05 17:25 53.62849 9.99975 48 ft 0 kts 243°
2026-05-05 17:26 53.62849 9.99974 48 ft 0 kts 243°
2026-05-05 17:26 53.62848 9.99973 48 ft 0 kts 243°
2026-05-05 17:27 53.62846 9.99964 48 ft 0 kts 244°
2026-05-05 17:27 53.62838 9.99936 46 ft 7 kts 244°
2026-05-05 17:28 53.62816 9.99861 44 ft 8 kts 245°
2026-05-05 17:28 53.62829 9.99781 43 ft 7 kts 311°
2026-05-05 17:28 53.62849 9.99763 45 ft 0 kts 334°
2026-05-05 17:28 53.62932 9.99694 45 ft 45 kts 333°
2026-05-05 17:29 53.63419 9.99278 45 ft 111 kts 333°
2026-05-05 17:29 53.64270 9.98555 49 ft 161 kts 332°
2026-05-05 17:29 53.65289 9.97659 575 ft 162 kts 336°
2026-05-05 17:29 53.66297 9.96800 1201 ft 163 kts 337°
2026-05-05 17:30 53.67362 9.95896 1667 ft 182 kts 337°
2026-05-05 17:30 53.68566 9.94875 2000 ft 204 kts 336°
2026-05-05 17:30 53.69872 9.93758 2595 ft 213 kts 335°
2026-05-05 17:30 53.71021 9.92169 3412 ft 220 kts 304°
2026-05-05 17:31 53.71463 9.89655 4019 ft 238 kts 267°
2026-05-05 17:31 53.71070 9.86808 4458 ft 262 kts 253°
2026-05-05 17:31 53.70476 9.83822 5226 ft 270 kts 251°
2026-05-05 17:31 53.69848 9.80833 6215 ft 269 kts 251°
2026-05-05 17:32 53.69226 9.77867 7180 ft 268 kts 251°
2026-05-05 17:32 53.68612 9.74881 8030 ft 271 kts 251°
2026-05-05 17:32 53.68005 9.71862 8904 ft 273 kts 251°
2026-05-05 17:32 53.67400 9.68815 9788 ft 275 kts 251°
2026-05-05 17:33 53.66761 9.65720 10328 ft 289 kts 247°
2026-05-05 17:33 53.65732 9.62678 10552 ft 313 kts 233°
2026-05-05 17:33 53.64193 9.60008 10747 ft 336 kts 219°
2026-05-05 17:33 53.62140 9.57984 11269 ft 348 kts 204°
2026-05-05 17:34 53.59789 9.56896 11919 ft 356 kts 189°
2026-05-05 17:34 53.57322 9.56378 12609 ft 360 kts 188°
2026-05-05 17:34 53.54813 9.55870 13296 ft 364 kts 188°
2026-05-05 17:34 53.52286 9.55368 13942 ft 368 kts 188°
2026-05-05 17:35 53.49730 9.54864 14546 ft 371 kts 188°
2026-05-05 17:35 53.47155 9.54356 15156 ft 375 kts 188°
2026-05-05 17:35 53.44551 9.53841 15769 ft 378 kts 188°
2026-05-05 17:35 53.41933 9.53326 16368 ft 380 kts 188°
2026-05-05 17:36 53.39292 9.52811 16986 ft 383 kts 188°
2026-05-05 17:36 53.36631 9.52291 17604 ft 386 kts 188°
2026-05-05 17:36 53.33951 9.51768 18218 ft 389 kts 187°
2026-05-05 17:36 53.31347 9.51259 18747 ft 391 kts 188°
2026-05-05 17:37 53.28632 9.50727 19299 ft 394 kts 188°
2026-05-05 17:37 53.26794 9.50368 19665 ft 395 kts 188°
2026-05-05 17:37 53.23160 9.49661 20371 ft 398 kts 188°
2026-05-05 17:37 53.20404 9.49125 20892 ft 400 kts 188°
2026-05-05 17:38 53.17633 9.48585 21412 ft 402 kts 188°
2026-05-05 17:38 53.14872 9.48048 21899 ft 404 kts 188°
2026-05-05 17:38 53.12070 9.47501 22391 ft 406 kts 188°
2026-05-05 17:38 53.09260 9.46949 22865 ft 408 kts 189°
2026-05-05 17:39 53.06439 9.46401 23315 ft 410 kts 189°
2026-05-05 17:39 53.03598 9.45852 23701 ft 412 kts 189°
2026-05-05 17:39 53.00741 9.45301 24067 ft 414 kts 189°
2026-05-05 17:39 52.97876 9.44747 24430 ft 415 kts 189°
2026-05-05 17:40 52.95936 9.44356 24670 ft 416 kts 189°
2026-05-05 17:40 52.93060 9.43749 25031 ft 417 kts 190°
2026-05-05 17:40 52.90171 9.43120 25382 ft 419 kts 190°
2026-05-05 17:40 52.87319 9.42493 25707 ft 420 kts 190°
2026-05-05 17:41 52.84420 9.41859 26055 ft 421 kts 190°
2026-05-05 17:41 52.81503 9.41224 26395 ft 423 kts 190°
2026-05-05 17:41 52.78607 9.40603 26710 ft 424 kts 189°
2026-05-05 17:41 52.75677 9.39982 27009 ft 426 kts 190°
2026-05-05 17:42 52.72734 9.39362 27303 ft 427 kts 190°
2026-05-05 17:42 52.69778 9.38738 27595 ft 429 kts 190°
2026-05-05 17:42 52.66807 9.38108 27876 ft 430 kts 190°
2026-05-05 17:42 52.63835 9.37480 28148 ft 431 kts 189°
2026-05-05 17:43 52.60838 9.37165 28401 ft 435 kts 183°
2026-05-05 17:43 52.57799 9.37106 28644 ft 436 kts 183°
2026-05-05 17:43 52.54769 9.37046 28951 ft 435 kts 183°
2026-05-05 17:43 52.51750 9.36985 29309 ft 434 kts 183°
2026-05-05 17:44 52.48726 9.36921 29662 ft 433 kts 183°
2026-05-05 17:44 52.45718 9.36861 30002 ft 432 kts 183°
2026-05-05 17:44 52.42797 9.36802 30302 ft 430 kts 184°
2026-05-05 17:44 52.39811 9.36741 30628 ft 428 kts 184°
2026-05-05 17:45 52.36835 9.36677 30957 ft 426 kts 183°
2026-05-05 17:45 52.33883 9.36613 31310 ft 423 kts 183°
2026-05-05 17:45 52.30951 9.36550 31648 ft 421 kts 183°
2026-05-05 17:45 52.28033 9.36485 31986 ft 419 kts 183°
2026-05-05 17:46 52.25178 9.36424 32314 ft 417 kts 183°
2026-05-05 17:46 52.22278 9.36364 32641 ft 415 kts 183°
2026-05-05 17:46 52.19394 9.36303 32939 ft 413 kts 184°
2026-05-05 17:46 52.16527 9.36242 33265 ft 412 kts 184°
2026-05-05 17:47 52.13662 9.36182 33581 ft 410 kts 183°
2026-05-05 17:47 52.10945 9.36126 33882 ft 409 kts 183°
2026-05-05 17:47 52.08153 9.36072 34127 ft 408 kts 183°
2026-05-05 17:47 52.05309 9.36015 34348 ft 408 kts 183°
2026-05-05 17:48 52.02469 9.35954 34549 ft 409 kts 183°
2026-05-05 17:48 51.99619 9.35890 34751 ft 409 kts 183°
2026-05-05 17:48 51.96768 9.35824 34821 ft 411 kts 183°
2026-05-05 17:49 51.91087 9.35698 34825 ft 413 kts 183°
2026-05-05 17:49 51.85327 9.35586 34823 ft 414 kts 182°
2026-05-05 17:50 51.79568 9.35472 34823 ft 414 kts 182°
2026-05-05 17:50 51.73806 9.35352 34831 ft 414 kts 183°
2026-05-05 17:51 51.68038 9.35228 34825 ft 414 kts 182°
2026-05-05 17:51 51.62272 9.35115 34816 ft 414 kts 182°
2026-05-05 17:52 51.56545 9.34997 34816 ft 414 kts 182°
2026-05-05 17:52 51.50795 9.34887 34811 ft 413 kts 182°
2026-05-05 17:53 51.45042 9.34769 34809 ft 413 kts 182°
2026-05-05 17:53 51.39294 9.34652 34794 ft 413 kts 181°
2026-05-05 17:54 51.33549 9.34540 34793 ft 413 kts 181°
2026-05-05 17:54 51.27813 9.34109 34798 ft 412 kts 189°
2026-05-05 17:55 51.22162 9.32701 34800 ft 413 kts 189°
2026-05-05 17:55 51.16498 9.31310 34793 ft 413 kts 188°
2026-05-05 17:56 51.10798 9.29935 34795 ft 414 kts 188°
2026-05-05 17:56 51.05098 9.28567 34799 ft 415 kts 188°
2026-05-05 17:57 50.99690 9.27266 34800 ft 415 kts 188°
2026-05-05 17:57 50.93983 9.25885 34796 ft 415 kts 188°
2026-05-05 17:58 50.88273 9.24504 34793 ft 415 kts 188°
2026-05-05 17:58 50.82589 9.23145 34791 ft 415 kts 188°
2026-05-05 17:59 50.76873 9.21788 34793 ft 415 kts 188°
2026-05-05 17:59 50.71159 9.20432 34793 ft 415 kts 187°
2026-05-05 17:59 50.68328 9.19791 34646 ft 413 kts 187°
2026-05-05 18:00 50.65521 9.19197 34267 ft 412 kts 186°
2026-05-05 18:00 50.62671 9.18621 33526 ft 412 kts 186°
2026-05-05 18:00 50.59830 9.18055 32956 ft 412 kts 186°
2026-05-05 18:00 50.56966 9.17486 32771 ft 415 kts 186°
2026-05-05 18:01 50.54083 9.16907 32813 ft 417 kts 186°
2026-05-05 18:01 50.48315 9.15715 32810 ft 420 kts 185°
2026-05-05 18:02 50.42524 9.14503 32051 ft 419 kts 185°
2026-05-05 18:02 50.39625 9.13903 31830 ft 422 kts 185°
2026-05-05 18:02 50.36701 9.13302 31808 ft 425 kts 185°
2026-05-05 18:03 50.30829 9.12095 31816 ft 426 kts 185°
2026-05-05 18:03 50.24943 9.10897 31816 ft 427 kts 185°
2026-05-05 18:04 50.19048 9.09699 31821 ft 427 kts 185°
2026-05-05 18:04 50.13155 9.08499 31820 ft 427 kts 185°
2026-05-05 18:05 50.07289 9.07310 31819 ft 427 kts 185°
2026-05-05 18:05 50.01436 9.06127 31815 ft 427 kts 185°
2026-05-05 18:06 49.95760 9.04986 31809 ft 428 kts 185°
2026-05-05 18:06 49.89850 9.03792 31811 ft 428 kts 185°
2026-05-05 18:07 49.83945 9.02599 31832 ft 429 kts 185°
2026-05-05 18:07 49.78675 9.01537 31814 ft 430 kts 185°
2026-05-05 18:08 49.72990 9.00399 31806 ft 431 kts 185°
2026-05-05 18:08 49.67042 8.99210 31811 ft 432 kts 185°
2026-05-05 18:09 49.61136 8.97865 31819 ft 433 kts 187°
2026-05-05 18:09 49.55203 8.96172 31818 ft 434 kts 189°
2026-05-05 18:10 49.49270 8.94436 31818 ft 434 kts 188°
2026-05-05 18:10 49.43336 8.92781 31820 ft 434 kts 188°
2026-05-05 18:11 49.37381 8.91163 31835 ft 434 kts 188°
2026-05-05 18:11 49.31434 8.89559 31831 ft 435 kts 188°
2026-05-05 18:12 49.25492 8.87946 31826 ft 435 kts 188°
2026-05-05 18:12 49.19772 8.85109 31823 ft 439 kts 205°
2026-05-05 18:13 49.14871 8.79614 31836 ft 443 kts 220°
2026-05-05 18:13 49.10586 8.73745 31747 ft 443 kts 219°
2026-05-05 18:13 49.08516 8.70933 31036 ft 443 kts 219°
2026-05-05 18:14 49.06213 8.67816 30284 ft 444 kts 219°
2026-05-05 18:14 49.03901 8.64687 29502 ft 446 kts 220°
2026-05-05 18:14 49.01574 8.61539 28653 ft 447 kts 220°
2026-05-05 18:14 48.99244 8.58396 27830 ft 449 kts 219°
2026-05-05 18:15 48.96894 8.55425 27054 ft 449 kts 217°
2026-05-05 18:15 48.94429 8.52537 26281 ft 447 kts 216°
2026-05-05 18:15 48.92274 8.50134 25628 ft 443 kts 215°
2026-05-05 18:15 48.89945 8.47591 24934 ft 438 kts 214°
2026-05-05 18:16 48.87481 8.44905 24232 ft 433 kts 215°
2026-05-05 18:16 48.85057 8.42230 23943 ft 432 kts 215°
2026-05-05 18:16 48.82638 8.39522 23801 ft 431 kts 216°
2026-05-05 18:16 48.80235 8.36803 23836 ft 431 kts 216°
2026-05-05 18:17 48.77838 8.34078 23844 ft 431 kts 216°
2026-05-05 18:17 48.75502 8.31441 23838 ft 430 kts 215°
2026-05-05 18:17 48.73093 8.28746 23837 ft 430 kts 215°
2026-05-05 18:17 48.70806 8.26203 23799 ft 430 kts 215°
2026-05-05 18:18 48.68404 8.23542 23221 ft 424 kts 215°
2026-05-05 18:18 48.66039 8.20924 22453 ft 420 kts 215°
2026-05-05 18:18 48.63722 8.18358 21753 ft 415 kts 215°
2026-05-05 18:18 48.61472 8.15862 21116 ft 411 kts 216°
2026-05-05 18:19 48.59180 8.13321 20480 ft 406 kts 216°
2026-05-05 18:19 48.56957 8.10865 19875 ft 402 kts 216°
2026-05-05 18:19 48.54705 8.08386 19286 ft 398 kts 216°
2026-05-05 18:19 48.52507 8.05967 18713 ft 394 kts 216°
2026-05-05 18:20 48.50299 8.03534 18157 ft 391 kts 216°
2026-05-05 18:20 48.48857 8.01942 17756 ft 388 kts 216°
2026-05-05 18:20 48.45956 7.98745 16960 ft 384 kts 216°
2026-05-05 18:20 48.44018 7.96619 16459 ft 380 kts 216°
2026-05-05 18:21 48.41890 7.94289 15898 ft 376 kts 217°
2026-05-05 18:21 48.40394 7.92649 15520 ft 374 kts 217°
2026-05-05 18:21 48.38237 7.90492 14952 ft 371 kts 210°
2026-05-05 18:21 48.35892 7.88898 14422 ft 369 kts 201°
2026-05-05 18:22 48.33419 7.87932 13963 ft 368 kts 191°
2026-05-05 18:22 48.30891 7.87483 13815 ft 369 kts 188°
2026-05-05 18:22 48.28341 7.87052 13838 ft 370 kts 189°
2026-05-05 18:22 48.25786 7.86605 13840 ft 370 kts 189°
2026-05-05 18:23 48.24194 7.86325 13839 ft 370 kts 189°
2026-05-05 18:23 48.21710 7.85894 13840 ft 370 kts 189°
2026-05-05 18:23 48.19255 7.85001 13839 ft 366 kts 204°
2026-05-05 18:23 48.17103 7.83074 13842 ft 363 kts 221°
2026-05-05 18:24 48.15441 7.80251 13839 ft 362 kts 237°
2026-05-05 18:24 48.14440 7.76891 13850 ft 364 kts 253°
2026-05-05 18:24 48.14102 7.73128 13849 ft 367 kts 265°
2026-05-05 18:24 48.13968 7.69311 13849 ft 368 kts 265°
2026-05-05 18:25 48.13838 7.65671 13804 ft 367 kts 265°
2026-05-05 18:25 48.13791 7.64380 13640 ft 367 kts 265°
2026-05-05 18:25 48.13607 7.59397 12935 ft 359 kts 265°
2026-05-05 18:25 48.13455 7.55699 12413 ft 353 kts 262°
2026-05-05 18:26 48.12830 7.52261 11909 ft 349 kts 243°
2026-05-05 18:26 48.11402 7.49361 11390 ft 347 kts 225°
2026-05-05 18:26 48.10207 7.47645 11042 ft 346 kts 224°
2026-05-05 18:26 48.08464 7.45208 10552 ft 338 kts 223°
2026-05-05 18:27 48.06800 7.42888 10067 ft 318 kts 223°
2026-05-05 18:27 48.05370 7.40902 9867 ft 294 kts 223°
2026-05-05 18:27 48.03941 7.38921 9831 ft 266 kts 223°
2026-05-05 18:27 48.02633 7.37164 9831 ft 239 kts 217°
2026-05-05 18:28 47.99861 7.36142 9094 ft 232 kts 185°
2026-05-05 18:28 47.98257 7.36146 8552 ft 229 kts 184°
2026-05-05 18:28 47.96667 7.36183 8044 ft 226 kts 183°
2026-05-05 18:29 47.95118 7.36227 7652 ft 219 kts 184°
2026-05-05 18:29 47.93622 7.36277 7278 ft 212 kts 183°
2026-05-05 18:29 47.92169 7.36334 6968 ft 206 kts 183°
2026-05-05 18:29 47.90750 7.36390 6552 ft 206 kts 183°
2026-05-05 18:30 47.89387 7.36442 6120 ft 205 kts 183°
2026-05-05 18:30 47.88152 7.36489 5691 ft 204 kts 184°
2026-05-05 18:30 47.86734 7.36547 5211 ft 204 kts 184°
2026-05-05 18:30 47.85582 7.36598 4827 ft 203 kts 184°
2026-05-05 18:31 47.84173 7.36663 4370 ft 202 kts 184°
2026-05-05 18:31 47.82776 7.36734 4039 ft 200 kts 184°
2026-05-05 18:31 47.81435 7.36955 3991 ft 191 kts 166°
2026-05-05 18:31 47.80264 7.37940 4010 ft 192 kts 156°
2026-05-05 18:32 47.79091 7.38828 4012 ft 189 kts 161°
2026-05-05 18:32 47.77932 7.39658 4011 ft 187 kts 161°
2026-05-05 18:32 47.76764 7.40488 4006 ft 181 kts 161°
2026-05-05 18:32 47.75630 7.41288 3897 ft 181 kts 161°
2026-05-05 18:33 47.74499 7.42083 3623 ft 179 kts 161°
2026-05-05 18:33 47.73384 7.42866 3398 ft 178 kts 161°
2026-05-05 18:33 47.72271 7.43650 3155 ft 177 kts 161°
2026-05-05 18:33 47.71578 7.44135 3003 ft 175 kts 162°
2026-05-05 18:34 47.70503 7.44888 2796 ft 164 kts 161°
2026-05-05 18:34 47.69502 7.45596 2556 ft 154 kts 161°
2026-05-05 18:34 47.68565 7.46255 2367 ft 146 kts 161°
2026-05-05 18:34 47.67654 7.46892 2176 ft 143 kts 161°
2026-05-05 18:35 47.66773 7.47504 2051 ft 141 kts 161°
2026-05-05 18:35 47.65876 7.48117 1957 ft 140 kts 161°
2026-05-05 18:35 47.64994 7.48706 1922 ft 142 kts 160°
2026-05-05 18:35 47.64098 7.49345 1967 ft 144 kts 158°
2026-05-05 18:36 47.63222 7.50047 1871 ft 144 kts 146°
2026-05-05 18:36 47.62661 7.51293 1959 ft 153 kts 105°
2026-05-05 18:36 47.62699 7.52857 1932 ft 155 kts 80°
2026-05-05 18:36 47.62912 7.54425 1909 ft 155 kts 81°
2026-05-05 18:37 47.62910 7.55987 1898 ft 153 kts 111°
2026-05-05 18:37 47.62287 7.57041 1716 ft 148 kts 160°
2026-05-05 18:37 47.61292 7.57255 1523 ft 141 kts 180°
2026-05-05 18:37 47.60313 7.57081 1412 ft 142 kts 198°
2026-05-05 18:38 47.59532 7.56263 1272 ft 140 kts 243°
2026-05-05 18:38 47.59295 7.54879 1002 ft 136 kts 259°
2026-05-05 18:38 47.59085 7.53514 869 ft 131 kts 258°
2026-05-05 18:38 47.58923 7.52530 870 ft 56 kts 257°
2026-05-05 18:39 47.58861 7.52115 868 ft 42 kts 258°
2026-05-05 18:39 47.58815 7.51778 864 ft 23 kts 263°
2026-05-05 18:39 47.58892 7.51677 867 ft 14 kts 349°
2026-05-05 18:39 47.58966 7.51697 867 ft 10 kts 36°
2026-05-05 18:40 47.59013 7.51773 868 ft 11 kts 48°
2026-05-05 18:40 47.59061 7.51848 868 ft 9 kts 44°
2026-05-05 18:40 47.59126 7.51941 868 ft 18 kts 46°
2026-05-05 18:40 47.59220 7.52082 868 ft 20 kts 44°
2026-05-05 18:41 47.59292 7.52244 868 ft 19 kts 65°
2026-05-05 18:41 47.59347 7.52421 868 ft 19 kts 64°
2026-05-05 18:41 47.59396 7.52567 869 ft 13 kts 64°
2026-05-05 18:41 47.59428 7.52669 871 ft 9 kts 65°
2026-05-05 18:42 47.59453 7.52752 869 ft 9 kts 66°
2026-05-05 18:42 47.59487 7.52837 866 ft 9 kts 40°
2026-05-05 18:42 47.59545 7.52831 866 ft 9 kts 338°
2026-05-05 18:42 47.59604 7.52797 866 ft 9 kts
2026-05-05 18:43 47.59643 7.52858 865 ft 8 kts 64°
2026-05-05 18:43 47.59667 7.52927 865 ft 8 kts 64°
2026-05-05 18:43 47.59708 7.53024 865 ft 14 kts 35°
2026-05-05 18:43 47.59795 7.53034 865 ft 10 kts
2026-05-05 18:44 47.59838 7.53040 865 ft 5 kts
2026-05-05 18:44 47.59858 7.53043 865 ft 2 kts
2026-05-05 18:44 47.59859 7.53043 865 ft 0 kts